Location: Campestrin
(46.4667°N, 11.7167°E)
Time: 09:08:46
(UTC+00:00)

Cosmos 1408 - Pass Details

Date: 18 April 2021
Orbit: 467 x 493 km, 82.6° (Epoch: 06 May)

Event Time Altitude Azimuth Distance (km) Brightness Sun altitude
Rises 18:36:35 0° 357° (N) 2,520 6.6 -5.9°
Reaches altitude 10° 18:38:46 10° 5° (N) 1,636 5.5 -6.3°
Maximum altitude 18:42:10 41° 77° (ENE) 691 3.0 -6.8°
Drops below altitude 10° 18:45:32 10° 149° (SSE) 1,621 4.7 -7.3°
Enters shadow 18:46:46 - 154° (SSE) 2,117 5.3 -7.5°
